Location: Curicchi
(45.0167°N, 12.0500°E)
Time: 19:09:38
(UTC+00:00)

STARLINK-1291 - Pass Details

Date: 07 June 2020
Orbit: 548 x 551 km, 53.0° (Epoch: 02 July)

Event Time Altitude Azimuth Distance (km) Brightness Sun altitude
Exits shadow 23:35:09 46° 106° (ESE) 746 4.1 -22.0°
Drops below altitude 10° 23:38:29 10° 64° (ENE) 1,819 6.7 -21.9°
Enters shadow 00:39:09 -62° 242° (WSW) 11,836 10.3 -19.3°
